| time (UTC) | temp F | wind direction | speed MPH | gust MPH | rain 1hr in | rain 24hr in | rain mn in | humidity % | barometer mb |
| 20260903174034 | 97 | 230 | 5.0 | 15.0 | 0.00 | 0.00 | 0.00 | 50 | 1017.5 |
| 20260903173534 | 98 | 268 | 4.0 | 15.0 | 0.00 | 0.00 | 0.00 | 49 | 1017.5 |
| 20260903173056 | 97 | 130 | 6.0 | 12.0 | 0.00 | 0.00 | 0.00 | 51 | 1017.6 |
| 20260903172538 | 98 | 158 | 3.0 | 10.0 | 0.00 | 0.00 | 0.00 | 51 | 1017.8 |
| 20260903172035 | 97 | 148 | 4.0 | 12.0 | 0.00 | 0.00 | 0.00 | 54 | 1017.9 |
| 20260903171555 | 96 | 360 | 6.0 | 13.0 | 0.00 | 0.00 | 0.00 | 53 | 1018.0 |
| 20260903171034 | 97 | 197 | 6.0 | 13.0 | 0.00 | 0.00 | 0.00 | 52 | 1017.9 |
| 20260903170534 | 96 | 101 | 6.0 | 11.0 | 0.00 | 0.00 | 0.00 | 54 | 1017.9 |
| 20260903170058 | 95 | 0 | 4.0 | 13.0 | 0.00 | 0.00 | 0.00 | 54 | 1018.1 |
| 20260903165534 | 96 | 196 | 5.0 | 13.0 | 0.00 | 0.00 | 0.00 | 54 | 1018.0 |
| 20260903165035 | 96 | 198 | 6.0 | 11.0 | 0.00 | 0.00 | 0.00 | 52 | 1018.1 |
| 20260903164549 | 96 | 0 | 3.0 | 12.0 | 0.00 | 0.00 | 0.00 | 55 | 1018.1 |
| 20260903164035 | 95 | 130 | 7.0 | 13.0 | 0.00 | 0.00 | 0.00 | 55 | 1018.2 |
| 20260903163534 | 94 | 145 | 4.0 | 13.0 | 0.00 | 0.00 | 0.00 | 57 | 1018.2 |
| 20260903163110 | 94 | 194 | 5.0 | 12.0 | 0.00 | 0.00 | 0.00 | 58 | 1018.2 |
| 20260903162535 | 94 | 190 | 3.0 | 12.0 | 0.00 | 0.00 | 0.00 | 58 | 1018.3 |
| 20260903162034 | 94 | 215 | 4.0 | 12.0 | 0.00 | 0.00 | 0.00 | 59 | 1018.3 |
| 20260903161553 | 93 | 161 | 5.0 | 14.0 | 0.00 | 0.00 | 0.00 | 60 | 1018.2 |
| 20260903161034 | 93 | 157 | 6.0 | 14.0 | 0.00 | 0.00 | 0.00 | 60 | 1018.3 |
| 20260903160538 | 93 | 172 | 4.0 | 12.0 | 0.00 | 0.00 | 0.00 | 61 | 1018.3 |
| 20260903160106 | 92 | 128 | 6.0 | 11.0 | 0.00 | 0.00 | 0.00 | 62 | 1018.2 |
| 20260903155534 | 92 | 52 | 3.0 | 10.0 | 0.00 | 0.00 | 0.00 | 63 | 1018.1 |
| 20260903155035 | 91 | 156 | 4.0 | 12.0 | 0.00 | 0.00 | 0.00 | 65 | 1018.3 |
| 20260903154554 | 91 | 138 | 4.0 | 13.0 | 0.00 | 0.00 | 0.00 | 64 | 1018.2 |
| 20260903154035 | 91 | 164 | 6.0 | 13.0 | 0.00 | 0.00 | 0.00 | 65 | 1018.1 |
| 20260903153537 | 90 | 163 | 4.0 | 16.0 | 0.00 | 0.00 | 0.00 | 67 | 1018.2 |
| 20260903153053 | 90 | 154 | 5.0 | 16.0 | 0.00 | 0.00 | 0.00 | 66 | 1018.2 |
| 20260903152536 | 90 | 163 | 7.0 | 14.0 | 0.00 | 0.00 | 0.00 | 67 | 1018.3 |
| 20260903152034 | 90 | 211 | 6.0 | 14.0 | 0.00 | 0.00 | 0.00 | 67 | 1018.2 |
| 20260903151553 | 89 | 172 | 6.0 | 14.0 | 0.00 | 0.00 | 0.00 | 69 | 1018.1 |
| 20260903151036 | 88 | 186 | 6.0 | 11.0 | 0.00 | 0.00 | 0.00 | 70 | 1018.2 |
| 20260903150535 | 88 | 175 | 7.0 | 11.0 | 0.00 | 0.00 | 0.00 | 72 | 1018.3 |
| 20260903150108 | 87 | 176 | 4.0 | 10.0 | 0.00 | 0.00 | 0.00 | 73 | 1018.2 |
| 20260903145535 | 87 | 152 | 4.0 | 12.0 | 0.00 | 0.00 | 0.00 | 74 | 1018.3 |
| 20260903145035 | 86 | 155 | 4.0 | 12.0 | 0.00 | 0.00 | 0.00 | 75 | 1018.3 |
| 20260903144554 | 86 | 182 | 5.0 | 11.0 | 0.00 | 0.00 | 0.00 | 75 | 1018.3 |
| 20260903144037 | 86 | 126 | 5.0 | 12.0 | 0.00 | 0.00 | 0.00 | 76 | 1018.2 |
| 20260903143535 | 86 | 162 | 5.0 | 12.0 | 0.00 | 0.00 | 0.00 | 76 | 1018.1 |
| 20260903143051 | 86 | 165 | 5.0 | 12.0 | 0.00 | 0.00 | 0.00 | 76 | 1018.1 |
| 20260903142536 | 86 | 160 | 6.0 | 12.0 | 0.00 | 0.00 | 0.00 | 77 | 1018.1 |
| 20260903142035 | 85 | 157 | 6.0 | 12.0 | 0.00 | 0.00 | 0.00 | 79 | 1018.3 |
| 20260903141556 | 85 | 149 | 6.0 | 11.0 | 0.00 | 0.00 | 0.00 | 80 | 1018.2 |
| 20260903141034 | 84 | 173 | 5.0 | 11.0 | 0.00 | 0.00 | 0.00 | 82 | 1018.3 |
| 20260903140535 | 83 | 155 | 4.0 | 9.0 | 0.00 | 0.00 | 0.00 | 82 | 1018.4 |
| 20260903140048 | 83 | 155 | 4.0 | 9.0 | 0.00 | 0.00 | 0.00 | 83 | 1018.4 |
| 20260903135535 | 83 | 178 | 3.0 | 9.0 | 0.00 | 0.00 | 0.00 | 84 | 1018.3 |
| 20260903135035 | 83 | 147 | 2.0 | 7.0 | 0.00 | 0.00 | 0.00 | 84 | 1018.5 |
| 20260903134554 | 82 | 261 | 3.0 | 7.0 | 0.00 | 0.00 | 0.00 | 84 | 1018.5 |
| 20260903134034 | 82 | 145 | 2.0 | 10.0 | 0.00 | 0.00 | 0.00 | 84 | 1018.3 |
| 20260903133534 | 82 | 186 | 3.0 | 10.0 | 0.00 | 0.00 | 0.00 | 85 | 1018.3 |
| 20260903133054 | 82 | 165 | 4.0 | 9.0 | 0.00 | 0.00 | 0.00 | 84 | 1018.2 |
| 20260903132537 | 82 | 187 | 4.0 | 9.0 | 0.00 | 0.00 | 0.00 | 84 | 1018.2 |
| 20260903132034 | 82 | 150 | 3.0 | 9.0 | 0.00 | 0.00 | 0.00 | 85 | 1018.2 |
| 20260903131554 | 82 | 184 | 3.0 | 9.0 | 0.00 | 0.00 | 0.00 | 85 | 1018.2 |
| 20260903131034 | 81 | 186 | 4.0 | 9.0 | 0.00 | 0.00 | 0.00 | 85 | 1018.2 |
| 20260903130535 | 81 | 165 | 2.0 | 8.0 | 0.00 | 0.00 | 0.00 | 86 | 1018.2 |
| 20260903130046 | 81 | 162 | 3.0 | 8.0 | 0.00 | 0.00 | 0.00 | 86 | 1018.3 |
| 20260903125535 | 81 | 154 | 4.0 | 11.0 | 0.00 | 0.00 | 0.00 | 86 | 1018.3 |
| 20260903125037 | 81 | 156 | 3.0 | 11.0 | 0.00 | 0.00 | 0.00 | 86 | 1018.2 |
| 20260903124553 | 81 | 185 | 3.0 | 9.0 | 0.00 | 0.00 | 0.00 | 86 | 1018.2 |
| 20260903124036 | 81 | 144 | 4.0 | 9.0 | 0.00 | 0.00 | 0.00 | 86 | 1018.3 |
| 20260903123534 | 81 | 149 | 4.0 | 9.0 | 0.00 | 0.00 | 0.00 | 86 | 1018.2 |
| 20260903123051 | 81 | 148 | 1.0 | 9.0 | 0.00 | 0.00 | 0.00 | 86 | 1018.1 |
| 20260903122535 | 81 | 144 | 3.0 | 9.0 | 0.00 | 0.00 | 0.00 | 86 | 1018.1 |
| 20260903122036 | 81 | 360 | 2.0 | 7.0 | 0.00 | 0.00 | 0.00 | 86 | 1018.1 |
| 20260903121559 | 81 | 154 | 3.0 | 9.0 | 0.00 | 0.00 | 0.00 | 86 | 1018.1 |
| 20260903121035 | 81 | 142 | 4.0 | 9.0 | 0.00 | 0.00 | 0.00 | 86 | 1018.1 |
| 20260903120537 | 81 | 178 | 3.0 | 9.0 | 0.00 | 0.00 | 0.00 | 85 | 1018.1 |
| 20260903120047 | 81 | 168 | 4.0 | 10.0 | 0.00 | 0.00 | 0.00 | 85 | 1018.1 |
| 20260903115535 | 81 | 182 | 4.0 | 10.0 | 0.00 | 0.00 | 0.00 | 85 | 1018.1 |
| 20260903115035 | 81 | 145 | 3.0 | 11.0 | 0.00 | 0.00 | 0.00 | 85 | 1018.2 |
| 20260903114613 | 81 | 159 | 4.0 | 11.0 | 0.00 | 0.00 | 0.00 | 85 | 1018.1 |
| 20260903114035 | 81 | 136 | 4.0 | 8.0 | 0.00 | 0.00 | 0.00 | 85 | 1018.0 |
| 20260903113539 | 81 | 159 | 3.0 | 8.0 | 0.00 | 0.00 | 0.00 | 85 | 1017.9 |
| 20260903113053 | 81 | 98 | 2.0 | 8.0 | 0.00 | 0.00 | 0.00 | 85 | 1017.9 |
| 20260903112536 | 81 | 169 | 2.0 | 9.0 | 0.00 | 0.00 | 0.00 | 85 | 1017.7 |
| 20260903112036 | 81 | 171 | 4.0 | 11.0 | 0.00 | 0.00 | 0.00 | 85 | 1017.7 |
| 20260903111613 | 81 | 186 | 5.0 | 11.0 | 0.00 | 0.00 | 0.00 | 85 | 1017.7 |
| 20260903111035 | 81 | 174 | 4.0 | 11.0 | 0.00 | 0.00 | 0.00 | 85 | 1017.6 |
| 20260903110535 | 81 | 165 | 3.0 | 11.0 | 0.00 | 0.00 | 0.00 | 85 | 1017.6 |
| 20260903110047 | 81 | 163 | 4.0 | 11.0 | 0.00 | 0.00 | 0.00 | 85 | 1017.7 |
| 20260903105538 | 81 | 165 | 4.0 | 10.0 | 0.00 | 0.00 | 0.00 | 85 | 1017.6 |
| 20260903105035 | 82 | 153 | 4.0 | 10.0 | 0.00 | 0.00 | 0.00 | 85 | 1017.7 |
| 20260903104605 | 81 | 0 | 3.0 | 11.0 | 0.00 | 0.00 | 0.00 | 85 | 1017.7 |
| 20260903104035 | 81 | 161 | 2.0 | 12.0 | 0.00 | 0.00 | 0.00 | 85 | 1017.6 |
| 20260903103534 | 81 | 182 | 4.0 | 12.0 | 0.00 | 0.00 | 0.00 | 85 | 1017.6 |
| 20260903103104 | 81 | 175 | 2.0 | 9.0 | 0.00 | 0.00 | 0.00 | 85 | 1017.7 |
| 20260903102536 | 81 | 186 | 2.0 | 9.0 | 0.00 | 0.00 | 0.00 | 85 | 1017.6 |
| 20260903102035 | 81 | 170 | 4.0 | 15.0 | 0.00 | 0.00 | 0.00 | 85 | 1017.6 |
| 20260903101556 | 81 | 360 | 6.0 | 15.0 | 0.00 | 0.00 | 0.00 | 85 | 1017.6 |
| 20260903101035 | 81 | 171 | 4.0 | 10.0 | 0.00 | 0.00 | 0.00 | 85 | 1017.7 |
| 20260903100535 | 81 | 189 | 4.0 | 10.0 | 0.00 | 0.00 | 0.00 | 85 | 1017.5 |
| 20260903100049 | 81 | 158 | 4.0 | 10.0 | 0.00 | 0.00 | 0.00 | 85 | 1017.6 |
| 20260903095534 | 81 | 185 | 4.0 | 10.0 | 0.00 | 0.00 | 0.00 | 85 | 1017.6 |
| 20260903095036 | 81 | 360 | 6.0 | 10.0 | 0.00 | 0.00 | 0.00 | 85 | 1017.5 |
| 20260903094559 | 81 | 162 | 5.0 | 10.0 | 0.00 | 0.00 | 0.00 | 85 | 1017.5 |
| 20260903094035 | 81 | 155 | 5.0 | 11.0 | 0.00 | 0.00 | 0.00 | 85 | 1017.4 |
| 20260903093535 | 81 | 147 | 6.0 | 13.0 | 0.00 | 0.00 | 0.00 | 85 | 1017.5 |
| 20260903093122 | 81 | 162 | 6.0 | 13.0 | 0.00 | 0.00 | 0.00 | 85 | 1017.4 |
| 20260903092538 | 81 | 155 | 6.0 | 11.0 | 0.00 | 0.00 | 0.00 | 86 | 1017.5 |
| 20260903092035 | 81 | 146 | 5.0 | 14.0 | 0.00 | 0.00 | 0.00 | 86 | 1017.5 |
| 20260903091551 | 81 | 177 | 5.0 | 14.0 | 0.00 | 0.00 | 0.00 | 86 | 1017.6 |
| 20260903091035 | 81 | 159 | 4.0 | 9.0 | 0.00 | 0.00 | 0.00 | 86 | 1017.5 |
| 20260903090535 | 81 | 179 | 3.0 | 10.0 | 0.00 | 0.00 | 0.00 | 86 | 1017.5 |
| 20260903090055 | 81 | 171 | 4.0 | 10.0 | 0.00 | 0.00 | 0.00 | 86 | 1017.5 |
| 20260903085536 | 81 | 165 | 5.0 | 10.0 | 0.00 | 0.00 | 0.00 | 86 | 1017.6 |
| 20260903085034 | 81 | 130 | 4.0 | 9.0 | 0.00 | 0.00 | 0.00 | 86 | 1017.6 |
| 20260903084555 | 81 | 148 | 4.0 | 9.0 | 0.00 | 0.00 | 0.00 | 86 | 1017.6 |
| 20260903084034 | 82 | 153 | 2.0 | 10.0 | 0.00 | 0.00 | 0.00 | 86 | 1017.6 |
| 20260903083535 | 82 | 205 | 4.0 | 10.0 | 0.00 | 0.00 | 0.00 | 86 | 1017.6 |
| 20260903083052 | 82 | 144 | 4.0 | 10.0 | 0.00 | 0.00 | 0.00 | 86 | 1017.5 |
| 20260903082534 | 82 | 164 | 4.0 | 10.0 | 0.00 | 0.00 | 0.00 | 86 | 1017.6 |
| 20260903082035 | 82 | 169 | 4.0 | 10.0 | 0.00 | 0.00 | 0.00 | 86 | 1017.7 |
| 20260903081545 | 81 | 159 | 5.0 | 11.0 | 0.00 | 0.00 | 0.00 | 86 | 1017.6 |
| 20260903081038 | 81 | 134 | 3.0 | 11.0 | 0.00 | 0.00 | 0.00 | 86 | 1017.6 |
| 20260903080535 | 81 | 140 | 5.0 | 11.0 | 0.00 | 0.00 | 0.00 | 86 | 1017.6 |
| 20260903080046 | 81 | 0 | 5.0 | 12.0 | 0.00 | 0.00 | 0.00 | 86 | 1017.6 |
| 20260903075534 | 81 | 166 | 4.0 | 12.0 | 0.00 | 0.00 | 0.00 | 86 | 1017.6 |
| 20260903075038 | 81 | 161 | 4.0 | 11.0 | 0.00 | 0.00 | 0.00 | 86 | 1017.6 |
| 20260903074553 | 81 | 360 | 5.0 | 12.0 | 0.00 | 0.00 | 0.00 | 86 | 1017.4 |
| 20260903074034 | 81 | 167 | 3.0 | 12.0 | 0.00 | 0.00 | 0.00 | 85 | 1017.4 |
| 20260903073535 | 81 | 360 | 4.0 | 11.0 | 0.00 | 0.00 | 0.00 | 85 | 1017.4 |
| 20260903073053 | 81 | 360 | 5.0 | 11.0 | 0.00 | 0.00 | 0.00 | 85 | 1017.4 |
| 20260903072535 | 81 | 157 | 5.0 | 13.0 | 0.00 | 0.00 | 0.00 | 85 | 1017.5 |
| 20260903072034 | 81 | 180 | 5.0 | 13.0 | 0.00 | 0.00 | 0.00 | 85 | 1017.5 |
| 20260903071615 | 82 | 158 | 5.0 | 12.0 | 0.00 | 0.00 | 0.00 | 85 | 1017.5 |
| 20260903071034 | 82 | 205 | 4.0 | 12.0 | 0.00 | 0.00 | 0.00 | 85 | 1017.5 |
| 20260903070536 | 82 | 160 | 5.0 | 10.0 | 0.00 | 0.00 | 0.00 | 84 | 1017.6 |
| 20260903070058 | 82 | 179 | 5.0 | 12.0 | 0.00 | 0.00 | 0.00 | 84 | 1017.5 |
| 20260903065539 | 82 | 149 | 3.0 | 12.0 | 0.00 | 0.00 | 0.00 | 84 | 1017.7 |
| 20260903065034 | 82 | 136 | 3.0 | 8.0 | 0.00 | 0.00 | 0.00 | 84 | 1017.7 |
| 20260903064559 | 82 | 173 | 3.0 | 8.0 | 0.00 | 0.00 | 0.00 | 84 | 1017.7 |
| 20260903064035 | 82 | 160 | 3.0 | 11.0 | 0.00 | 0.00 | 0.00 | 84 | 1017.8 |
| 20260903063535 | 82 | 121 | 4.0 | 11.0 | 0.00 | 0.00 | 0.00 | 84 | 1017.8 |
| 20260903063102 | 82 | 105 | 4.0 | 11.0 | 0.00 | 0.00 | 0.00 | 84 | 1017.8 |
| 20260903062535 | 82 | 163 | 4.0 | 9.0 | 0.00 | 0.00 | 0.00 | 83 | 1017.8 |
| 20260903062034 | 82 | 164 | 4.0 | 9.0 | 0.00 | 0.00 | 0.00 | 83 | 1017.8 |
| 20260903061547 | 82 | 134 | 4.0 | 10.0 | 0.00 | 0.00 | 0.00 | 83 | 1017.9 |
| 20260903061035 | 82 | 144 | 3.0 | 10.0 | 0.00 | 0.00 | 0.00 | 83 | 1017.9 |
| 20260903060535 | 82 | 154 | 1.0 | 10.0 | 0.00 | 0.00 | 0.00 | 83 | 1017.8 |
| 20260903060046 | 82 | 148 | 3.0 | 9.0 | 0.00 | 0.00 | 0.00 | 83 | 1017.7 |
| 20260903055535 | 82 | 136 | 2.0 | 9.0 | 0.00 | 0.00 | 0.00 | 82 | 1017.7 |
| 20260903055034 | 82 | 360 | 4.0 | 10.0 | 0.00 | 0.00 | 0.00 | 82 | 1017.8 |
| 20260903054554 | 83 | 134 | 4.0 | 11.0 | 0.00 | 0.00 | 0.00 | 82 | 1017.9 |
| 20260903054038 | 83 | 149 | 6.0 | 11.0 | 0.00 | 0.00 | 0.00 | 82 | 1017.8 |
| 20260903053535 | 83 | 141 | 5.0 | 13.0 | 0.00 | 0.00 | 0.00 | 81 | 1017.7 |
| 20260903053053 | 83 | 161 | 5.0 | 13.0 | 0.00 | 0.00 | 0.00 | 81 | 1017.7 |
| 20260903052536 | 83 | 177 | 5.0 | 12.0 | 0.00 | 0.00 | 0.00 | 81 | 1017.7 |
| 20260903052036 | 83 | 360 | 4.0 | 18.0 | 0.00 | 0.00 | 0.00 | 80 | 1017.7 |
| 20260903051554 | 83 | 123 | 8.0 | 18.0 | 0.00 | 0.00 | 0.00 | 80 | 1017.6 |
| 20260903051036 | 83 | 168 | 7.0 | 13.0 | 0.00 | 0.00 | 0.00 | 79 | 1017.6 |
| 20260903050534 | 83 | 145 | 4.0 | 12.0 | 0.00 | 0.00 | 0.00 | 79 | 1017.5 |
| 20260903050107 | 84 | 154 | 7.0 | 12.0 | 0.00 | 0.00 | 0.00 | 78 | 1017.5 |
| 20260903045534 | 84 | 171 | 5.0 | 11.0 | 0.00 | 0.00 | 0.00 | 78 | 1017.6 |
| 20260903045035 | 84 | 146 | 5.0 | 19.0 | 0.00 | 0.00 | 0.00 | 77 | 1017.5 |
| 20260903044556 | 84 | 150 | 6.0 | 19.0 | 0.00 | 0.00 | 0.00 | 76 | 1017.6 |
| 20260903044035 | 84 | 150 | 8.0 | 18.0 | 0.00 | 0.00 | 0.00 | 75 | 1017.6 |
| 20260903043535 | 85 | 149 | 8.0 | 16.0 | 0.00 | 0.00 | 0.00 | 74 | 1017.5 |
| 20260903043054 | 85 | 360 | 3.0 | 16.0 | 0.00 | 0.00 | 0.00 | 74 | 1017.5 |
| 20260903042535 | 85 | 130 | 8.0 | 16.0 | 0.00 | 0.00 | 0.00 | 73 | 1017.5 |
| 20260903042035 | 85 | 144 | 8.0 | 16.0 | 0.00 | 0.00 | 0.00 | 72 | 1017.5 |
| 20260903041606 | 85 | 179 | 8.0 | 14.0 | 0.00 | 0.00 | 0.00 | 72 | 1017.5 |
| 20260903041034 | 86 | 112 | 6.0 | 12.0 | 0.00 | 0.00 | 0.00 | 72 | 1017.5 |
| 20260903040535 | 86 | 158 | 4.0 | 14.0 | 0.00 | 0.00 | 0.00 | 71 | 1017.4 |
| 20260903040059 | 86 | 200 | 7.0 | 14.0 | 0.00 | 0.00 | 0.00 | 71 | 1017.4 |
| 20260903035535 | 86 | 360 | 5.0 | 13.0 | 0.00 | 0.00 | 0.00 | 71 | 1017.4 |
| 20260903035036 | 86 | 360 | 3.0 | 10.0 | 0.00 | 0.00 | 0.00 | 70 | 1017.5 |
| 20260903034545 | 87 | 111 | 3.0 | 10.0 | 0.00 | 0.00 | 0.00 | 70 | 1017.3 |
| 20260903034035 | 87 | 159 | 4.0 | 9.0 | 0.00 | 0.00 | 0.00 | 70 | 1017.3 |
| 20260903033534 | 87 | 360 | 2.0 | 8.0 | 0.00 | 0.00 | 0.00 | 69 | 1017.2 |
| 20260903033044 | 87 | 134 | 3.0 | 10.0 | 0.00 | 0.00 | 0.00 | 68 | 1017.2 |
| 20260903032535 | 88 | 165 | 3.0 | 10.0 | 0.00 | 0.00 | 0.00 | 68 | 1017.1 |
| 20260903032034 | 88 | 99 | 5.0 | 10.0 | 0.00 | 0.00 | 0.00 | 67 | 1017.0 |
| 20260903031553 | 88 | 149 | 6.0 | 10.0 | 0.00 | 0.00 | 0.00 | 66 | 1016.8 |
| 20260903031035 | 89 | 99 | 3.0 | 17.0 | 0.00 | 0.00 | 0.00 | 66 | 1016.9 |
| 20260903030537 | 89 | 130 | 6.0 | 17.0 | 0.00 | 0.00 | 0.00 | 65 | 1016.7 |
| 20260903030051 | 89 | 164 | 4.0 | 10.0 | 0.00 | 0.00 | 0.00 | 65 | 1016.7 |
| 20260903025535 | 90 | 111 | 3.0 | 10.0 | 0.00 | 0.00 | 0.00 | 64 | 1016.7 |
| 20260903025035 | 90 | 360 | 2.0 | 11.0 | 0.00 | 0.00 | 0.00 | 63 | 1016.7 |
| 20260903024547 | 90 | 360 | 4.0 | 13.0 | 0.00 | 0.00 | 0.00 | 63 | 1016.5 |
| 20260903024034 | 90 | 360 | 3.0 | 13.0 | 0.00 | 0.00 | 0.00 | 62 | 1016.5 |
| 20260903023534 | 91 | 131 | 4.0 | 12.0 | 0.00 | 0.00 | 0.00 | 62 | 1016.3 |
| 20260903023055 | 91 | 360 | 6.0 | 12.0 | 0.00 | 0.00 | 0.00 | 62 | 1016.1 |
| 20260903022534 | 91 | 143 | 6.0 | 12.0 | 0.00 | 0.00 | 0.00 | 61 | 1016.1 |
| 20260903022034 | 91 | 152 | 6.0 | 12.0 | 0.00 | 0.00 | 0.00 | 61 | 1016.0 |
| 20260903021556 | 92 | 141 | 3.0 | 9.0 | 0.00 | 0.00 | 0.00 | 60 | 1015.9 |
| 20260903021036 | 92 | 168 | 3.0 | 9.0 | 0.00 | 0.00 | 0.00 | 59 | 1015.9 |
| 20260903020537 | 92 | 140 | 3.0 | 9.0 | 0.00 | 0.00 | 0.00 | 58 | 1015.7 |
| 20260903020053 | 93 | 138 | 1.0 | 11.0 | 0.00 | 0.00 | 0.00 | 57 | 1015.7 |
| 20260903015536 | 93 | 167 | 3.0 | 12.0 | 0.00 | 0.00 | 0.00 | 57 | 1015.6 |
| 20260903015038 | 93 | 360 | 5.0 | 12.0 | 0.00 | 0.00 | 0.00 | 55 | 1015.4 |
| 20260903014559 | 93 | 360 | 5.0 | 12.0 | 0.00 | 0.00 | 0.00 | 53 | 1015.3 |
| 20260903014035 | 94 | 360 | 3.0 | 12.0 | 0.00 | 0.00 | 0.00 | 51 | 1015.3 |
| 20260903013535 | 94 | 360 | 4.0 | 12.0 | 0.00 | 0.00 | 0.00 | 47 | 1015.2 |
| 20260903013053 | 94 | 0 | 0.0 | 0.0 | 0.00 | 0.00 | 0.00 | 45 | 1015.1 |
| 20260903012536 | 95 | 0 | 0.0 | 0.0 | 0.00 | 0.00 | 0.00 | 44 | 1015.0 |
| 20260903012034 | 95 | 0 | 0.0 | 0.0 | 0.00 | 0.00 | 0.00 | 44 | 1015.0 |
| 20260903011553 | 96 | 0 | 0.0 | 0.0 | 0.00 | 0.00 | 0.00 | 43 | 1015.0 |
| 20260903011036 | 96 | 0 | 0.0 | 0.0 | 0.00 | 0.00 | 0.00 | 43 | 1015.0 |
| 20260903010536 | 97 | 0 | 0.0 | 0.0 | 0.00 | 0.00 | 0.00 | 42 | 1014.9 |
| 20260903010052 | 97 | 0 | 0.0 | 0.0 | 0.00 | 0.00 | 0.00 | 41 | 1015.0 |
| 20260903005539 | 98 | 0 | 0.0 | 2.0 | 0.00 | 0.00 | 0.00 | 41 | 1015.0 |
| 20260903005038 | 98 | 0 | 0.0 | 2.0 | 0.00 | 0.00 | 0.00 | 40 | 1015.0 |
| 20260903004555 | 99 | 0 | 0.0 | 3.0 | 0.00 | 0.00 | 0.00 | 40 | 1015.0 |
| 20260903004035 | 99 | 0 | 0.0 | 4.0 | 0.00 | 0.00 | 0.00 | 39 | 1015.0 |
| 20260903003538 | 100 | 0 | 1.0 | 6.0 | 0.00 | 0.00 | 0.00 | 39 | 1014.9 |
| 20260903003059 | 100 | 158 | 1.0 | 7.0 | 0.00 | 0.00 | 0.00 | 38 | 1015.0 |
| 20260903002536 | 101 | 360 | 1.0 | 7.0 | 0.00 | 0.00 | 0.00 | 38 | 1014.9 |
| 20260903002035 | 101 | 187 | 2.0 | 6.0 | 0.00 | 0.00 | 0.00 | 37 | 1014.9 |
| 20260903001552 | 102 | 0 | 1.0 | 5.0 | 0.00 | 0.00 | 0.00 | 36 | 1015.0 |
| 20260903001039 | 102 | 0 | 1.0 | 7.0 | 0.00 | 0.00 | 0.00 | 35 | 1014.9 |
| 20260903000537 | 102 | 144 | 0.0 | 7.0 | 0.00 | 0.00 | 0.00 | 35 | 1015.0 |
| 20260902235535 | 101 | 161 | 0.0 | 3.0 | 0.00 | 0.00 | 0.00 | 36 | 1015.1 |
| 20260902235034 | 101 | 0 | 0.0 | 4.0 | 0.00 | 0.00 | 0.00 | 36 | 1015.0 |
| 20260902234605 | 101 | 0 | 0.0 | 7.0 | 0.00 | 0.00 | 0.00 | 36 | 1015.1 |
| 20260902234038 | 101 | 163 | 3.0 | 7.0 | 0.00 | 0.00 | 0.00 | 36 | 1015.1 |
| 20260902233535 | 102 | 183 | 2.0 | 9.0 | 0.00 | 0.00 | 0.00 | 36 | 1015.1 |
| 20260902233045 | 102 | 136 | 2.0 | 9.0 | 0.00 | 0.00 | 0.00 | 36 | 1015.1 |
| 20260902232535 | 102 | 360 | 0.0 | 7.0 | 0.00 | 0.00 | 0.00 | 36 | 1015.1 |
| 20260902232034 | 102 | 170 | 2.0 | 8.0 | 0.00 | 0.00 | 0.00 | 36 | 1015.1 |
| 20260902231554 | 102 | 166 | 2.0 | 8.0 | 0.00 | 0.00 | 0.00 | 36 | 1015.1 |
| 20260902231034 | 103 | 82 | 1.0 | 9.0 | 0.00 | 0.00 | 0.00 | 36 | 1015.1 |
| 20260902230534 | 103 | 66 | 0.0 | 9.0 | 0.00 | 0.00 | 0.00 | 36 | 1015.1 |
| 20260902225535 | 103 | 0 | 0.0 | 7.0 | 0.00 | 0.00 | 0.00 | 37 | 1015.1 |
| 20260902225034 | 103 | 360 | 3.0 | 8.0 | 0.00 | 0.00 | 0.00 | 36 | 1015.1 |
| 20260902224605 | 103 | 360 | 3.0 | 8.0 | 0.00 | 0.00 | 0.00 | 35 | 1015.1 |
| 20260902224035 | 103 | 163 | 2.0 | 8.0 | 0.00 | 0.00 | 0.00 | 35 | 1015.1 |
| 20260902223538 | 104 | 132 | 1.0 | 6.0 | 0.00 | 0.00 | 0.00 | 35 | 1015.1 |
| 20260902223044 | 104 | 94 | 1.0 | 5.0 | 0.00 | 0.00 | 0.00 | 34 | 1015.2 |
| 20260902222535 | 104 | 0 | 1.0 | 7.0 | 0.00 | 0.00 | 0.00 | 34 | 1015.3 |
| 20260902222036 | 103 | 101 | 1.0 | 7.0 | 0.00 | 0.00 | 0.00 | 34 | 1015.3 |
| 20260902221604 | 103 | 152 | 3.0 | 7.0 | 0.00 | 0.00 | 0.00 | 35 | 1015.3 |
| 20260902221034 | 102 | 94 | 2.0 | 7.0 | 0.00 | 0.00 | 0.00 | 37 | 1015.2 |
| 20260902220534 | 102 | 0 | 1.0 | 10.0 | 0.00 | 0.00 | 0.00 | 35 | 1015.3 |
| 20260902220058 | 103 | 229 | 2.0 | 12.0 | 0.00 | 0.00 | 0.00 | 34 | 1015.4 |
| 20260902215534 | 103 | 191 | 5.0 | 12.0 | 0.00 | 0.00 | 0.00 | 34 | 1015.3 |
| 20260902215034 | 103 | 158 | 3.0 | 10.0 | 0.00 | 0.00 | 0.00 | 35 | 1015.4 |
| 20260902214616 | 103 | 144 | 1.0 | 12.0 | 0.00 | 0.00 | 0.00 | 36 | 1015.4 |
| 20260902214037 | 103 | 159 | 5.0 | 12.0 | 0.00 | 0.00 | 0.00 | 36 | 1015.6 |
| 20260902213536 | 102 | 157 | 1.0 | 9.0 | 0.00 | 0.00 | 0.00 | 37 | 1015.6 |
| 20260902213052 | 102 | 209 | 2.0 | 7.0 | 0.00 | 0.00 | 0.00 | 37 | 1015.7 |
| 20260902212535 | 101 | 0 | 2.0 | 6.0 | 0.00 | 0.00 | 0.00 | 37 | 1015.7 |
| 20260902212035 | 101 | 0 | 0.0 | 3.0 | 0.00 | 0.00 | 0.00 | 39 | 1015.7 |
| 20260902211545 | 101 | 0 | 0.0 | 3.0 | 0.00 | 0.00 | 0.00 | 38 | 1015.7 |
| 20260902211035 | 101 | 0 | 0.0 | 5.0 | 0.00 | 0.00 | 0.00 | 39 | 1015.8 |
| 20260902210537 | 101 | 0 | 0.0 | 8.0 | 0.00 | 0.00 | 0.00 | 38 | 1015.9 |
| 20260902210055 | 102 | 192 | 1.0 | 8.0 | 0.00 | 0.00 | 0.00 | 38 | 1016.0 |
| 20260902205534 | 103 | 197 | 2.0 | 8.0 | 0.00 | 0.00 | 0.00 | 37 | 1016.0 |
| 20260902205035 | 104 | 0 | 0.0 | 7.0 | 0.00 | 0.00 | 0.00 | 36 | 1016.1 |
| 20260902204554 | 105 | 347 | 0.0 | 6.0 | 0.00 | 0.00 | 0.00 | 35 | 1016.1 |
| 20260902204035 | 105 | 148 | 2.0 | 8.0 | 0.00 | 0.00 | 0.00 | 37 | 1016.2 |
| 20260902203534 | 104 | 198 | 0.0 | 8.0 | 0.00 | 0.00 | 0.00 | 37 | 1016.3 |
| 20260902203052 | 105 | 0 | 2.0 | 8.0 | 0.00 | 0.00 | 0.00 | 37 | 1016.4 |
| 20260902202535 | 104 | 71 | 1.0 | 4.0 | 0.00 | 0.00 | 0.00 | 37 | 1016.4 |
| 20260902202035 | 105 | 157 | 1.0 | 8.0 | 0.00 | 0.00 | 0.00 | 37 | 1016.5 |
| 20260902201602 | 104 | 0 | 2.0 | 8.0 | 0.00 | 0.00 | 0.00 | 38 | 1016.6 |
| 20260902201038 | 103 | 360 | 2.0 | 8.0 | 0.00 | 0.00 | 0.00 | 39 | 1016.6 |
| 20260902200536 | 103 | 152 | 1.0 | 7.0 | 0.00 | 0.00 | 0.00 | 39 | 1016.9 |
| 20260902200055 | 102 | 258 | 2.0 | 7.0 | 0.00 | 0.00 | 0.00 | 39 | 1016.8 |
| 20260902195534 | 101 | 263 | 1.0 | 8.0 | 0.00 | 0.00 | 0.00 | 40 | 1017.1 |
| 20260902195035 | 102 | 0 | 2.0 | 8.0 | 0.00 | 0.00 | 0.00 | 38 | 1017.1 |
| 20260902194554 | 103 | 0 | 3.0 | 8.0 | 0.00 | 0.00 | 0.00 | 38 | 1017.3 |
| 20260902194034 | 104 | 66 | 0.0 | 6.0 | 0.00 | 0.00 | 0.00 | 37 | 1017.3 |
| 20260902193539 | 104 | 0 | 0.0 | 8.0 | 0.00 | 0.00 | 0.00 | 35 | 1017.5 |
| 20260902193050 | 104 | 160 | 2.0 | 9.0 | 0.00 | 0.00 | 0.00 | 37 | 1017.4 |
| 20260902192535 | 103 | 160 | 4.0 | 9.0 | 0.00 | 0.00 | 0.00 | 39 | 1017.6 |
| 20260902192036 | 103 | 165 | 2.0 | 7.0 | 0.00 | 0.00 | 0.00 | 38 | 1017.6 |
| 20260902191548 | 103 | 0 | 1.0 | 8.0 | 0.00 | 0.00 | 0.00 | 38 | 1017.7 |
| 20260902191039 | 103 | 207 | 1.0 | 9.0 | 0.00 | 0.00 | 0.00 | 37 | 1017.8 |
| 20260902190535 | 104 | 279 | 3.0 | 9.0 | 0.00 | 0.00 | 0.00 | 38 | 1017.8 |
| 20260902190047 | 103 | 171 | 2.0 | 7.0 | 0.00 | 0.00 | 0.00 | 40 | 1017.9 |
| 20260902185535 | 103 | 0 | 0.0 | 10.0 | 0.00 | 0.00 | 0.00 | 40 | 1018.0 |
| 20260902185035 | 103 | 195 | 3.0 | 10.0 | 0.00 | 0.00 | 0.00 | 41 | 1018.0 |
| 20260902184555 | 102 | 0 | 2.0 | 10.0 | 0.00 | 0.00 | 0.00 | 43 | 1018.1 |
| 20260902184034 | 102 | 198 | 1.0 | 11.0 | 0.00 | 0.00 | 0.00 | 42 | 1018.1 |
| 20260902183536 | 102 | 171 | 5.0 | 11.0 | 0.00 | 0.00 | 0.00 | 42 | 1018.3 |
| 20260902183051 | 102 | 0 | 2.0 | 8.0 | 0.00 | 0.00 | 0.00 | 42 | 1018.4 |
| 20260902182536 | 101 | 148 | 3.0 | 8.0 | 0.00 | 0.00 | 0.00 | 44 | 1018.5 |
| 20260902182035 | 100 | 161 | 1.0 | 5.0 | 0.00 | 0.00 | 0.00 | 43 | 1018.6 |
| 20260902181552 | 100 | 163 | 0.0 | 10.0 | 0.00 | 0.00 | 0.00 | 44 | 1018.7 |
| 20260902181036 | 100 | 0 | 0.0 | 12.0 | 0.00 | 0.00 | 0.00 | 44 | 1018.9 |
| 20260902180536 | 100 | 360 | 3.0 | 12.0 | 0.00 | 0.00 | 0.00 | 46 | 1018.9 |
| 20260902180047 | 99 | 200 | 3.0 | 10.0 | 0.00 | 0.00 | 0.00 | 47 | 1019.1 |
| 20260902175534 | 99 | 165 | 0.0 | 4.0 | 0.00 | 0.00 | 0.00 | 48 | 1019.1 |
| 20260902175034 | 100 | 0 | 1.0 | 5.0 | 0.00 | 0.00 | 0.00 | 47 | 1019.2 |
| 20260902174555 | 100 | 0 | 0.0 | 8.0 | 0.00 | 0.00 | 0.00 | 47 | 1019.3 |